Torna al catalogo

SL-8 DEB *

AttivoLEO
NORAD 3931·DEBRIS·🇷🇺 Russia

Lanciato Mar 15, 1965 da Baikonur Cosmodrome

Loading…

Prossimi Passaggi (prossime 24 ore)

TLE

AggiornatoSource: Space-Track

Epoca: Sep 14, 2026, 15:41 UTC

1 03931U 65020EV  26257.65349666 -.00000034  00000-0  42695-3 0  9993
2 03931  56.0658 347.1902 0190752 201.4108 309.5995 12.35218781788218

Traccia SL-8 DEB * in tempo reale con AllMySat

Download on the App Store